Location: Temiskaming Shores
(47.4794°N, 79.7121°W)
Time: 06:10:17
(UTC-05:00)

ISS - Visible Passes

Search period start: 23 November 2017 00:00
Search period end: 03 December 2017 00:00
Orbit: 402 x 407 km, 51.6° (Epoch: 23 November)

Date Brightness Start Highest point End Pass type
(mag) Time Alt. Az. Time Alt. Az. Time Alt. Az.
26 Nov -1.2 18:35:19 10° S 18:35:51 12° S 18:35:51 12° S visible
27 Nov -0.9 19:18:03 10° SW 19:18:37 14° SW 19:18:37 14° SW visible
28 Nov -2.6 18:26:03 10° SSW 18:28:36 31° SSE 18:28:36 31° SSE visible
29 Nov -2.0 17:34:22 10° S 17:36:49 20° SE 17:38:30 14° E visible
29 Nov -1.5 19:09:42 10° WSW 19:11:10 24° WSW 19:11:10 24° WSW visible
30 Nov -3.8 18:17:23 10° SW 18:20:38 65° SSE 18:21:00 58° ESE visible
01 Dec -3.0 17:25:15 10° SW 17:28:20 39° SE 17:30:46 15° E visible
01 Dec -1.9 19:01:32 10° W 19:03:25 29° WNW 19:03:25 29° WNW visible
02 Dec -3.8 18:09:02 10° WSW 18:12:19 72° NNW 18:13:09 46° NE visible
